TimeCDT,TemperatureF,Dew PointF,Humidity,Sea Level PressureIn,VisibilityMPH,Wind Direction,Wind SpeedMPH,Gust SpeedMPH,PrecipitationIn,Events,Conditions,WindDirDegrees,DateUTC
12:58 AM,64.0,45.0,50,30.09,10.0,South,19.6,-,N/A,,Mostly Cloudy,170,2014-03-26 05:58:00
1:02 AM,62.6,46.4,55,30.09,10.0,SSE,24.2,27.6,N/A,Rain,Light Rain,160,2014-03-26 06:02:00
1:19 AM,60.8,46.4,59,30.07,10.0,SSE,24.2,33.4,N/A,,Mostly Cloudy,150,2014-03-26 06:19:00
1:58 AM,61.9,37.0,40,30.07,10.0,SSE,16.1,26.5,0.00,,Scattered Clouds,160,2014-03-26 06:58:00
2:58 AM,60.8,35.1,38,30.06,10.0,SSE,23.0,28.8,N/A,,Overcast,160,2014-03-26 07:58:00
3:58 AM,59.0,39.6,49,30.04,10.0,SSE,19.6,29.9,N/A,,Overcast,160,2014-03-26 08:58:00
4:35 AM,57.2,39.2,51,30.06,10.0,SSE,15.0,-,N/A,Rain,Light Rain,150,2014-03-26 09:35:00
4:53 AM,57.2,41.0,55,30.05,10.0,SSE,18.4,-,N/A,,Overcast,150,2014-03-26 09:53:00
4:58 AM,57.2,41.9,57,30.02,10.0,SSE,18.4,-,0.00,,Overcast,150,2014-03-26 09:58:00
5:05 AM,57.2,44.6,63,30.03,10.0,SSE,19.6,-,N/A,Rain,Light Rain,150,2014-03-26 10:05:00
5:18 AM,55.4,46.4,72,30.05,10.0,SSE,12.7,-,N/A,,Overcast,160,2014-03-26 10:18:00
5:53 AM,57.2,46.4,67,30.05,10.0,SSE,15.0,-,N/A,,Overcast,160,2014-03-26 10:53:00
5:58 AM,56.5,45.9,68,30.02,10.0,SSE,16.1,-,0.00,,Overcast,160,2014-03-26 10:58:00
6:06 AM,57.2,46.4,67,30.04,10.0,SSE,13.8,-,N/A,Rain,Light Rain,160,2014-03-26 11:06:00
6:15 AM,55.4,46.4,72,30.03,10.0,SE,15.0,-,N/A,,Overcast,140,2014-03-26 11:15:00
6:17 AM,55.4,46.4,72,30.03,10.0,SE,15.0,-,N/A,,Light Drizzle,140,2014-03-26 11:17:00
6:37 AM,55.4,48.2,77,30.04,10.0,SE,9.2,-,N/A,,Overcast,140,2014-03-26 11:37:00
6:58 AM,55.4,48.6,78,30.03,10.0,SSE,10.4,-,0.00,,Overcast,160,2014-03-26 11:58:00
7:58 AM,56.3,49.6,78,30.03,10.0,SSE,15.0,-,N/A,,Overcast,150,2014-03-26 12:58:00
8:03 AM,57.2,50.0,77,30.05,10.0,SSE,12.7,-,N/A,,Overcast,160,2014-03-26 13:03:00
8:48 AM,57.2,50.0,77,30.06,10.0,SSE,16.1,-,N/A,,Overcast,160,2014-03-26 13:48:00
8:58 AM,56.7,50.9,81,30.04,10.0,SSE,13.8,-,N/A,,Overcast,160,2014-03-26 13:58:00
9:58 AM,57.2,51.8,82,30.04,10.0,SSE,12.7,-,N/A,,Overcast,160,2014-03-26 14:58:00
10:58 AM,57.9,52.5,82,30.04,10.0,SSE,19.6,-,N/A,,Overcast,150,2014-03-26 15:58:00
11:58 AM,59.2,53.1,80,30.03,10.0,SSE,16.1,-,N/A,,Overcast,150,2014-03-26 16:58:00
12:23 PM,60.8,53.6,77,30.04,10.0,SSE,12.7,-,N/A,,Overcast,160,2014-03-26 17:23:00
12:58 PM,61.5,53.2,74,30.00,10.0,South,25.3,32.2,N/A,,Overcast,170,2014-03-26 17:58:00
1:58 PM,61.7,53.8,75,29.98,10.0,South,24.2,-,N/A,,Overcast,170,2014-03-26 18:58:00
2:18 PM,60.8,53.6,77,29.99,10.0,SSE,19.6,27.6,N/A,,Overcast,160,2014-03-26 19:18:00
2:53 PM,59.0,55.4,88,29.97,8.0,SSE,19.6,29.9,N/A,,Overcast,150,2014-03-26 19:53:00
2:58 PM,59.4,55.6,87,29.96,7.0,SSE,21.9,26.5,N/A,,Overcast,150,2014-03-26 19:58:00
3:13 PM,59.0,55.4,88,29.97,6.0,SSE,18.4,-,N/A,,Overcast,150,2014-03-26 20:13:00
3:14 PM,59.0,55.4,88,29.96,5.0,SSE,19.6,-,N/A,,Overcast,150,2014-03-26 20:14:00
3:54 PM,59.0,57.2,94,29.95,3.0,SE,16.1,21.9,N/A,,Overcast,140,2014-03-26 20:54:00
3:58 PM,58.3,57.6,97,29.94,4.0,SE,16.1,21.9,N/A,,Overcast,140,2014-03-26 20:58:00
4:28 PM,59.0,57.2,94,29.94,2.5,SE,17.3,24.2,N/A,,Overcast,140,2014-03-26 21:28:00
4:38 PM,59.0,57.2,94,29.94,2.5,SSE,16.1,-,N/A,,Overcast,150,2014-03-26 21:38:00
4:48 PM,59.0,59.0,100,29.94,2.0,SE,13.8,-,N/A,,Overcast,140,2014-03-26 21:48:00
4:58 PM,58.5,58.1,99,29.93,2.0,SE,16.1,-,N/A,,Overcast,130,2014-03-26 21:58:00
5:03 PM,59.0,57.2,94,29.93,2.5,SE,18.4,-,N/A,,Overcast,140,2014-03-26 22:03:00
5:08 PM,59.0,57.2,94,29.93,4.0,SE,15.0,-,N/A,,Overcast,140,2014-03-26 22:08:00
5:23 PM,59.0,59.0,100,29.93,3.0,SE,15.0,-,N/A,,Overcast,130,2014-03-26 22:23:00
5:48 PM,59.0,59.0,100,29.91,2.5,SE,16.1,19.6,N/A,,Overcast,130,2014-03-26 22:48:00
5:53 PM,59.0,59.0,100,29.91,2.5,SE,16.1,-,N/A,,Overcast,140,2014-03-26 22:53:00
5:58 PM,58.5,58.3,99,29.90,2.5,SE,16.1,23.0,N/A,,Overcast,130,2014-03-26 22:58:00
6:03 PM,59.0,59.0,100,29.91,3.0,SE,13.8,23.0,N/A,,Overcast,130,2014-03-26 23:03:00
6:18 PM,59.0,59.0,100,29.91,3.0,SE,13.8,-,N/A,,Overcast,130,2014-03-26 23:18:00
6:38 PM,59.0,59.0,100,29.91,2.5,SE,12.7,-,N/A,,Overcast,130,2014-03-26 23:38:00
6:53 PM,59.0,59.0,100,29.91,2.5,SE,11.5,-,N/A,,Overcast,140,2014-03-26 23:53:00
6:58 PM,59.2,58.8,99,29.90,2.5,SE,15.0,-,N/A,,Overcast,130,2014-03-26 23:58:00
7:18 PM,59.0,59.0,100,29.91,2.0,SE,13.8,-,N/A,,Overcast,130,2014-03-27 00:18:00
7:28 PM,59.0,59.0,100,29.90,2.5,SE,15.0,-,N/A,,Overcast,140,2014-03-27 00:28:00
7:48 PM,59.0,59.0,100,29.90,3.0,SE,16.1,-,N/A,,Overcast,130,2014-03-27 00:48:00
7:58 PM,59.5,59.2,99,29.89,3.0,SE,15.0,-,N/A,,Overcast,130,2014-03-27 00:58:00
8:58 PM,59.7,59.5,99,29.88,4.0,SE,13.8,-,N/A,,Overcast,140,2014-03-27 01:58:00
9:58 PM,60.3,59.9,99,29.89,4.0,SE,13.8,-,N/A,,Overcast,140,2014-03-27 02:58:00
10:58 PM,60.4,60.1,99,29.88,4.0,SE,16.1,-,N/A,,Overcast,140,2014-03-27 03:58:00
11:58 PM,60.4,60.1,99,29.86,5.0,SE,17.3,-,N/A,,Overcast,140,2014-03-27 04:58:00